Time,TemperatureF,DewpointF,PressureIn,WindDirection,WindDirectionDegrees,WindSpeedMPH,WindSpeedGustMPH,Humidity,HourlyPrecipIn,Conditions,Clouds,dailyrainin,SoftwareType,DateUTC
2013-06-07 00:01:00,55.4,54.0,29.45,SSW,202,4.0,7.0,96,0.06,,,0.01,Rainwise IP-100,2013-06-07 04:01:00,
2013-06-07 00:06:00,55.4,54.0,29.44,SW,225,2.0,4.0,96,0.06,,,0.01,Rainwise IP-100,2013-06-07 04:06:00,
2013-06-07 00:11:00,55.0,54.0,29.44,East,90,0.0,2.0,96,0.06,,,0.02,Rainwise IP-100,2013-06-07 04:11:00,
2013-06-07 00:16:00,54.9,54.0,29.44,East,90,0.0,3.0,96,0.12,,,0.03,Rainwise IP-100,2013-06-07 04:16:00,
2013-06-07 00:21:00,54.9,54.0,29.44,SE,135,0.0,4.0,96,0.06,,,0.03,Rainwise IP-100,2013-06-07 04:21:00,
2013-06-07 00:26:00,54.9,54.0,29.43,South,180,0.0,1.0,96,0.06,,,0.04,Rainwise IP-100,2013-06-07 04:26:00,
2013-06-07 00:31:00,54.9,54.0,29.43,WNW,292,0.0,5.0,96,0.06,,,0.04,Rainwise IP-100,2013-06-07 04:31:00,
2013-06-07 00:37:00,54.7,53.5,29.44,SE,135,0.0,5.0,96,0.00,,,0.04,Rainwise IP-100,2013-06-07 04:37:00,
2013-06-07 00:42:00,54.4,53.5,29.43,SW,225,0.0,4.0,96,0.00,,,0.04,Rainwise IP-100,2013-06-07 04:42:00,
2013-06-07 00:47:00,53.9,53.0,29.43,West,270,2.0,5.0,95,0.06,,,0.05,Rainwise IP-100,2013-06-07 04:47:00,
2013-06-07 00:52:00,53.7,52.0,29.43,South,180,0.0,3.0,96,0.06,,,0.05,Rainwise IP-100,2013-06-07 04:52:00,
2013-06-07 00:57:00,53.2,51.0,29.43,SSE,157,0.0,4.0,95,0.06,,,0.06,Rainwise IP-100,2013-06-07 04:57:00,
2013-06-07 01:02:00,52.9,51.0,29.43,East,90,0.0,3.0,95,0.06,,,0.07,Rainwise IP-100,2013-06-07 05:02:00,
2013-06-07 01:07:00,52.5,51.0,29.43,SE,135,0.0,3.0,95,0.06,,,0.07,Rainwise IP-100,2013-06-07 05:07:00,
2013-06-07 01:12:00,52.2,50.5,29.42,SE,135,1.0,3.0,95,0.06,,,0.07,Rainwise IP-100,2013-06-07 05:12:00,
2013-06-07 01:18:00,51.9,50.5,29.42,SSE,157,0.0,3.0,95,0.06,,,0.08,Rainwise IP-100,2013-06-07 05:18:00,
2013-06-07 01:23:00,51.7,50.5,29.42,SSE,157,0.0,0.0,95,0.06,,,0.08,Rainwise IP-100,2013-06-07 05:23:00,
2013-06-07 01:28:00,51.5,50.5,29.42,ESE,112,0.0,3.0,95,0.00,,,0.08,Rainwise IP-100,2013-06-07 05:28:00,
2013-06-07 01:33:00,51.7,50.5,29.41,ESE,112,0.0,0.0,95,0.00,,,0.08,Rainwise IP-100,2013-06-07 05:33:00,
2013-06-07 01:38:00,51.7,50.5,29.41,NE,45,1.0,2.0,95,0.00,,,0.08,Rainwise IP-100,2013-06-07 05:38:00,
2013-06-07 01:43:00,51.6,50.5,29.41,NE,45,0.0,2.0,95,0.00,,,0.08,Rainwise IP-100,2013-06-07 05:43:00,
2013-06-07 01:48:00,51.6,50.5,29.41,NE,45,0.0,0.0,95,0.00,,,0.08,Rainwise IP-100,2013-06-07 05:48:00,
2013-06-07 01:54:00,51.3,50.0,29.41,NE,45,0.0,0.0,95,0.00,,,0.08,Rainwise IP-100,2013-06-07 05:54:00,
2013-06-07 01:59:00,51.3,50.0,29.40,NE,45,0.0,0.0,96,0.00,,,0.08,Rainwise IP-100,2013-06-07 05:59:00,
2013-06-07 02:04:00,51.4,50.0,29.40,WNW,292,1.0,2.0,96,0.00,,,0.08,Rainwise IP-100,2013-06-07 06:04:00,
2013-06-07 02:09:00,51.5,51.0,29.40,West,270,3.0,4.0,97,0.00,,,0.08,Rainwise IP-100,2013-06-07 06:09:00,
2013-06-07 02:14:00,51.6,51.0,29.40,WNW,292,3.0,5.0,98,0.00,,,0.08,Rainwise IP-100,2013-06-07 06:14:00,
2013-06-07 02:19:00,51.5,51.0,29.39,NW,315,1.0,5.0,98,0.00,,,0.08,Rainwise IP-100,2013-06-07 06:19:00,
2013-06-07 02:24:00,51.4,50.5,29.39,NW,315,0.0,3.0,97,0.00,,,0.08,Rainwise IP-100,2013-06-07 06:24:00,
2013-06-07 02:29:00,51.4,50.5,29.39,NW,315,0.0,1.0,97,0.00,,,0.08,Rainwise IP-100,2013-06-07 06:29:00,
2013-06-07 02:35:00,51.4,50.5,29.39,NW,315,0.0,0.0,97,0.00,,,0.08,Rainwise IP-100,2013-06-07 06:35:00,
2013-06-07 02:40:00,51.4,50.5,29.39,NW,315,0.0,0.0,97,0.00,,,0.08,Rainwise IP-100,2013-06-07 06:40:00,
2013-06-07 02:45:00,51.4,50.5,29.39,NW,315,0.0,4.0,97,0.00,,,0.08,Rainwise IP-100,2013-06-07 06:45:00,
2013-06-07 02:50:00,51.5,51.0,29.39,NW,315,0.0,1.0,97,0.00,,,0.08,Rainwise IP-100,2013-06-07 06:50:00,
2013-06-07 02:55:00,51.5,51.0,29.39,NW,315,0.0,2.0,97,0.00,,,0.08,Rainwise IP-100,2013-06-07 06:55:00,
2013-06-07 03:00:00,51.4,50.5,29.38,NW,315,0.0,0.0,97,0.00,,,0.08,Rainwise IP-100,2013-06-07 07:00:00,
2013-06-07 03:05:00,51.4,50.5,29.38,NW,315,1.0,2.0,97,0.00,,,0.08,Rainwise IP-100,2013-06-07 07:05:00,
2013-06-07 03:11:00,51.6,51.0,29.38,NW,315,0.0,2.0,97,0.00,,,0.08,Rainwise IP-100,2013-06-07 07:11:00,
2013-06-07 03:16:00,51.7,51.0,29.38,WSW,247,1.0,3.0,97,0.00,,,0.08,Rainwise IP-100,2013-06-07 07:16:00,
2013-06-07 03:21:00,51.8,51.0,29.38,WSW,247,0.0,2.0,97,0.00,,,0.08,Rainwise IP-100,2013-06-07 07:21:00,
2013-06-07 03:26:00,51.8,51.0,29.38,WSW,247,2.0,2.0,97,0.00,,,0.08,Rainwise IP-100,2013-06-07 07:26:00,
2013-06-07 03:31:00,51.7,51.0,29.37,WSW,247,0.0,2.0,97,0.00,,,0.08,Rainwise IP-100,2013-06-07 07:31:00,
2013-06-07 03:36:00,51.7,51.0,29.38,WSW,247,0.0,0.0,97,0.00,,,0.08,Rainwise IP-100,2013-06-07 07:36:00,
2013-06-07 03:41:00,51.7,51.0,29.38,WSW,247,0.0,0.0,97,0.00,,,0.08,Rainwise IP-100,2013-06-07 07:41:00,
2013-06-07 03:46:00,51.7,51.0,29.37,WSW,247,0.0,0.0,97,0.00,,,0.08,Rainwise IP-100,2013-06-07 07:46:00,
2013-06-07 03:52:00,51.7,51.0,29.37,North,360,1.0,3.0,97,0.00,,,0.08,Rainwise IP-100,2013-06-07 07:52:00,
2013-06-07 03:57:00,51.7,51.0,29.38,North,360,1.0,3.0,98,0.00,,,0.08,Rainwise IP-100,2013-06-07 07:57:00,
2013-06-07 04:02:00,51.6,51.0,29.37,North,360,0.0,3.0,98,0.00,,,0.08,Rainwise IP-100,2013-06-07 08:02:00,
2013-06-07 04:07:00,51.6,51.0,29.37,North,360,0.0,2.0,98,0.00,,,0.08,Rainwise IP-100,2013-06-07 08:07:00,
2013-06-07 04:12:00,51.6,51.0,29.37,North,360,0.0,0.0,97,0.00,,,0.08,Rainwise IP-100,2013-06-07 08:12:00,
2013-06-07 04:17:00,51.5,51.0,29.37,North,360,0.0,0.0,97,0.00,,,0.08,Rainwise IP-100,2013-06-07 08:17:00,
2013-06-07 04:22:00,51.5,51.0,29.37,North,360,0.0,0.0,97,0.00,,,0.08,Rainwise IP-100,2013-06-07 08:22:00,
2013-06-07 04:28:00,51.5,51.0,29.37,North,360,0.0,0.0,97,0.00,,,0.08,Rainwise IP-100,2013-06-07 08:28:00,
2013-06-07 04:33:00,51.4,50.5,29.37,North,360,0.0,2.0,97,0.00,,,0.08,Rainwise IP-100,2013-06-07 08:33:00,
2013-06-07 04:38:00,51.4,50.5,29.37,North,360,0.0,0.0,97,0.00,,,0.08,Rainwise IP-100,2013-06-07 08:38:00,
2013-06-07 04:43:00,51.4,50.5,29.37,North,360,0.0,0.0,97,0.00,,,0.08,Rainwise IP-100,2013-06-07 08:43:00,
2013-06-07 04:48:00,51.7,51.0,29.37,North,360,0.0,0.0,97,0.00,,,0.08,Rainwise IP-100,2013-06-07 08:48:00,
2013-06-07 04:53:00,51.7,51.0,29.37,North,360,0.0,0.0,97,0.00,,,0.08,Rainwise IP-100,2013-06-07 08:53:00,
2013-06-07 04:58:00,51.7,51.0,29.37,North,360,0.0,0.0,97,0.06,,,0.09,Rainwise IP-100,2013-06-07 08:58:00,
2013-06-07 05:03:00,51.6,51.0,29.37,North,360,0.0,0.0,97,0.06,,,0.09,Rainwise IP-100,2013-06-07 09:03:00,
2013-06-07 05:09:00,51.6,51.0,29.37,North,360,0.0,0.0,97,0.00,,,0.09,Rainwise IP-100,2013-06-07 09:09:00,
2013-06-07 05:14:00,51.5,51.0,29.37,North,360,0.0,0.0,97,0.00,,,0.09,Rainwise IP-100,2013-06-07 09:14:00,
2013-06-07 05:19:00,51.5,51.0,29.37,North,360,0.0,0.0,97,0.00,,,0.09,Rainwise IP-100,2013-06-07 09:19:00,
2013-06-07 05:24:00,51.5,51.0,29.37,North,360,0.0,0.0,97,0.00,,,0.09,Rainwise IP-100,2013-06-07 09:24:00,
2013-06-07 05:29:00,51.5,51.0,29.37,North,360,0.0,0.0,97,0.00,,,0.09,Rainwise IP-100,2013-06-07 09:29:00,
2013-06-07 05:34:00,51.4,50.5,29.37,North,360,0.0,0.0,97,0.00,,,0.09,Rainwise IP-100,2013-06-07 09:34:00,
2013-06-07 05:39:00,51.4,50.5,29.37,North,360,0.0,0.0,97,0.00,,,0.09,Rainwise IP-100,2013-06-07 09:39:00,
2013-06-07 05:45:00,51.4,50.5,29.37,North,360,0.0,0.0,97,0.00,,,0.09,Rainwise IP-100,2013-06-07 09:45:00,
2013-06-07 05:50:00,51.5,51.0,29.37,North,360,0.0,0.0,97,0.06,,,0.10,Rainwise IP-100,2013-06-07 09:50:00,
2013-06-07 05:55:00,51.5,51.0,29.37,North,360,0.0,0.0,97,0.06,,,0.10,Rainwise IP-100,2013-06-07 09:55:00,
2013-06-07 06:00:00,51.5,51.0,29.37,North,360,0.0,0.0,97,0.00,,,0.10,Rainwise IP-100,2013-06-07 10:00:00,
2013-06-07 06:05:00,51.6,51.0,29.37,North,360,0.0,0.0,97,0.00,,,0.10,Rainwise IP-100,2013-06-07 10:05:00,
2013-06-07 06:10:00,51.6,51.0,29.37,North,360,0.0,1.0,98,0.00,,,0.10,Rainwise IP-100,2013-06-07 10:10:00,
2013-06-07 06:15:00,51.7,51.0,29.38,North,360,0.0,0.0,98,0.00,,,0.10,Rainwise IP-100,2013-06-07 10:15:00,
2013-06-07 06:20:00,51.9,51.0,29.38,NW,315,1.0,4.0,98,0.00,,,0.10,Rainwise IP-100,2013-06-07 10:20:00,
2013-06-07 06:26:00,51.9,51.0,29.38,NW,315,0.0,2.0,98,0.00,,,0.10,Rainwise IP-100,2013-06-07 10:26:00,
2013-06-07 06:31:00,51.9,51.0,29.38,NW,315,0.0,3.0,98,0.00,,,0.10,Rainwise IP-100,2013-06-07 10:31:00,
2013-06-07 06:36:00,51.9,51.0,29.38,NW,315,2.0,2.0,98,0.00,,,0.10,Rainwise IP-100,2013-06-07 10:36:00,
2013-06-07 06:41:00,51.8,51.0,29.37,NW,315,0.0,2.0,98,0.06,,,0.11,Rainwise IP-100,2013-06-07 10:41:00,
2013-06-07 06:46:00,51.9,51.0,29.38,NW,315,0.0,2.0,98,0.06,,,0.11,Rainwise IP-100,2013-06-07 10:46:00,
2013-06-07 06:51:00,51.9,51.0,29.37,NW,315,0.0,0.0,98,0.00,,,0.11,Rainwise IP-100,2013-06-07 10:51:00,
2013-06-07 06:56:00,52.1,51.0,29.37,NW,315,0.0,0.0,98,0.00,,,0.11,Rainwise IP-100,2013-06-07 10:56:00,
2013-06-07 07:02:00,52.1,51.0,29.38,NW,315,0.0,0.0,98,0.00,,,0.11,Rainwise IP-100,2013-06-07 11:02:00,
2013-06-07 07:07:00,52.2,51.0,29.38,NW,315,0.0,0.0,98,0.00,,,0.11,Rainwise IP-100,2013-06-07 11:07:00,
2013-06-07 07:12:00,52.3,51.0,29.38,NW,315,0.0,2.0,98,0.00,,,0.11,Rainwise IP-100,2013-06-07 11:12:00,
2013-06-07 07:17:00,52.3,51.0,29.38,NW,315,0.0,3.0,98,0.00,,,0.11,Rainwise IP-100,2013-06-07 11:17:00,
2013-06-07 07:22:00,52.4,51.0,29.38,NW,315,0.0,0.0,98,0.00,,,0.11,Rainwise IP-100,2013-06-07 11:22:00,
2013-06-07 07:27:00,52.5,52.0,29.38,NW,315,0.0,0.0,98,0.00,,,0.11,Rainwise IP-100,2013-06-07 11:27:00,
2013-06-07 07:32:00,52.6,52.0,29.38,NW,315,0.0,0.0,98,0.00,,,0.11,Rainwise IP-100,2013-06-07 11:32:00,
2013-06-07 07:37:00,52.7,52.0,29.39,NW,315,0.0,0.0,97,0.00,,,0.11,Rainwise IP-100,2013-06-07 11:37:00,
2013-06-07 07:43:00,52.7,52.0,29.39,NW,315,0.0,2.0,97,0.00,,,0.11,Rainwise IP-100,2013-06-07 11:43:00,
2013-06-07 07:48:00,52.8,52.0,29.39,NW,315,0.0,0.0,97,0.00,,,0.11,Rainwise IP-100,2013-06-07 11:48:00,
2013-06-07 07:53:00,52.9,52.0,29.38,NW,315,0.0,0.0,97,0.00,,,0.11,Rainwise IP-100,2013-06-07 11:53:00,
2013-06-07 07:58:00,53.3,53.0,29.39,ENE,67,0.0,2.0,97,0.00,,,0.11,Rainwise IP-100,2013-06-07 11:58:00,
2013-06-07 08:03:00,53.3,53.0,29.39,East,90,3.0,3.0,97,0.00,,,0.11,Rainwise IP-100,2013-06-07 12:03:00,
2013-06-07 08:08:00,53.1,51.0,29.39,East,90,1.0,5.0,95,0.00,,,0.11,Rainwise IP-100,2013-06-07 12:08:00,
2013-06-07 08:13:00,53.1,51.0,29.39,East,90,0.0,3.0,96,0.06,,,0.12,Rainwise IP-100,2013-06-07 12:13:00,
2013-06-07 08:19:00,52.9,51.0,29.39,East,90,0.0,3.0,96,0.18,,,0.14,Rainwise IP-100,2013-06-07 12:19:00,
2013-06-07 08:24:00,52.7,51.0,29.39,NE,45,4.0,5.0,96,0.24,,,0.16,Rainwise IP-100,2013-06-07 12:24:00,
2013-06-07 08:29:00,52.3,50.5,29.39,East,90,1.0,6.0,96,0.18,,,0.18,Rainwise IP-100,2013-06-07 12:29:00,
2013-06-07 08:34:00,52.0,50.5,29.39,ENE,67,5.0,6.0,96,0.18,,,0.19,Rainwise IP-100,2013-06-07 12:34:00,
2013-06-07 08:39:00,51.6,50.5,29.39,East,90,6.0,7.0,96,0.12,,,0.20,Rainwise IP-100,2013-06-07 12:39:00,
2013-06-07 08:44:00,51.3,50.0,29.39,ENE,67,4.0,6.0,96,0.12,,,0.21,Rainwise IP-100,2013-06-07 12:44:00,
2013-06-07 08:49:00,51.2,50.5,29.39,East,90,2.0,7.0,97,0.12,,,0.21,Rainwise IP-100,2013-06-07 12:49:00,
2013-06-07 08:54:00,51.3,50.5,29.40,ENE,67,4.0,6.0,97,0.00,,,0.21,Rainwise IP-100,2013-06-07 12:54:00,
2013-06-07 09:00:00,51.3,50.5,29.40,NNE,22,3.0,5.0,97,0.12,,,0.23,Rainwise IP-100,2013-06-07 13:00:00,
2013-06-07 09:05:00,51.3,50.5,29.40,NNE,22,3.0,5.0,97,0.12,,,0.23,Rainwise IP-100,2013-06-07 13:05:00,
2013-06-07 09:10:00,51.3,50.5,29.40,North,360,1.0,6.0,97,0.06,,,0.24,Rainwise IP-100,2013-06-07 13:10:00,
2013-06-07 09:15:00,51.1,50.0,29.39,NW,315,1.0,4.0,96,0.06,,,0.24,Rainwise IP-100,2013-06-07 13:15:00,
2013-06-07 09:20:00,50.9,50.0,29.39,NNW,337,3.0,5.0,96,0.06,,,0.25,Rainwise IP-100,2013-06-07 13:20:00,
2013-06-07 09:25:00,50.7,50.0,29.39,NNW,337,0.0,4.0,96,0.06,,,0.25,Rainwise IP-100,2013-06-07 13:25:00,
2013-06-07 09:30:00,50.9,50.0,29.39,NNE,22,2.0,4.0,95,0.00,,,0.25,Rainwise IP-100,2013-06-07 13:30:00,
2013-06-07 09:36:00,51.0,50.0,29.39,NE,45,3.0,4.0,95,0.00,,,0.25,Rainwise IP-100,2013-06-07 13:36:00,
2013-06-07 09:41:00,51.1,50.0,29.39,North,360,0.0,6.0,95,0.06,,,0.26,Rainwise IP-100,2013-06-07 13:41:00,
2013-06-07 09:46:00,51.1,50.0,29.39,North,360,1.0,6.0,96,0.06,,,0.26,Rainwise IP-100,2013-06-07 13:46:00,
2013-06-07 09:51:00,50.9,50.5,29.39,NNE,22,3.0,6.0,97,0.00,,,0.26,Rainwise IP-100,2013-06-07 13:51:00,
2013-06-07 09:56:00,50.9,50.5,29.39,NE,45,2.0,6.0,97,0.06,,,0.27,Rainwise IP-100,2013-06-07 13:56:00,
2013-06-07 10:01:00,50.9,50.5,29.39,NNW,337,0.0,5.0,97,0.06,,,0.27,Rainwise IP-100,2013-06-07 14:01:00,
2013-06-07 10:06:00,50.9,50.5,29.39,NNE,22,5.0,6.0,97,0.00,,,0.27,Rainwise IP-100,2013-06-07 14:06:00,
2013-06-07 10:12:00,50.9,50.5,29.39,NE,45,3.0,6.0,97,0.00,,,0.27,Rainwise IP-100,2013-06-07 14:12:00,
2013-06-07 10:17:00,50.8,50.5,29.39,NE,45,2.0,6.0,97,0.00,,,0.27,Rainwise IP-100,2013-06-07 14:17:00,
2013-06-07 10:22:00,50.8,50.5,29.39,NNE,22,2.0,6.0,97,0.00,,,0.27,Rainwise IP-100,2013-06-07 14:22:00,
2013-06-07 10:27:00,50.9,50.5,29.38,North,360,5.0,6.0,97,0.00,,,0.27,Rainwise IP-100,2013-06-07 14:27:00,
2013-06-07 10:32:00,50.9,50.5,29.38,NNE,22,5.0,6.0,97,0.00,,,0.27,Rainwise IP-100,2013-06-07 14:32:00,
2013-06-07 10:37:00,50.8,50.5,29.39,NE,45,2.0,8.0,97,0.00,,,0.27,Rainwise IP-100,2013-06-07 14:37:00,
2013-06-07 10:42:00,50.8,50.5,29.39,NE,45,2.0,7.0,97,0.00,,,0.27,Rainwise IP-100,2013-06-07 14:42:00,
2013-06-07 10:47:00,50.8,50.5,29.39,ENE,67,4.0,8.0,97,0.00,,,0.27,Rainwise IP-100,2013-06-07 14:47:00,
2013-06-07 10:53:00,50.8,50.5,29.39,NNE,22,5.0,6.0,97,0.00,,,0.27,Rainwise IP-100,2013-06-07 14:53:00,
2013-06-07 10:58:00,50.7,50.0,29.39,NE,45,4.0,8.0,97,0.06,,,0.28,Rainwise IP-100,2013-06-07 14:58:00,
2013-06-07 11:03:00,50.7,50.0,29.39,NE,45,4.0,5.0,98,0.06,,,0.28,Rainwise IP-100,2013-06-07 15:03:00,
2013-06-07 11:08:00,50.8,50.5,29.39,NE,45,7.0,7.0,97,0.00,,,0.28,Rainwise IP-100,2013-06-07 15:08:00,
2013-06-07 11:13:00,50.7,50.0,29.39,NE,45,4.0,8.0,97,0.00,,,0.28,Rainwise IP-100,2013-06-07 15:13:00,
2013-06-07 11:18:00,50.7,50.0,29.39,ENE,67,4.0,6.0,97,0.00,,,0.28,Rainwise IP-100,2013-06-07 15:18:00,
2013-06-07 11:23:00,50.7,50.0,29.39,ENE,67,4.0,5.0,97,0.00,,,0.28,Rainwise IP-100,2013-06-07 15:23:00,
2013-06-07 11:29:00,50.4,50.0,29.39,NE,45,7.0,7.0,97,0.00,,,0.28,Rainwise IP-100,2013-06-07 15:29:00,
2013-06-07 11:34:00,50.3,50.0,29.39,NE,45,3.0,8.0,97,0.00,,,0.28,Rainwise IP-100,2013-06-07 15:34:00,
2013-06-07 11:39:00,50.5,50.0,29.39,NE,45,4.0,6.0,97,0.00,,,0.28,Rainwise IP-100,2013-06-07 15:39:00,
2013-06-07 11:44:00,50.4,50.0,29.39,ENE,67,5.0,7.0,97,0.06,,,0.29,Rainwise IP-100,2013-06-07 15:44:00,
2013-06-07 11:49:00,50.4,50.0,29.38,ESE,112,6.0,8.0,97,0.06,,,0.29,Rainwise IP-100,2013-06-07 15:49:00,
2013-06-07 11:54:00,50.5,50.0,29.38,East,90,3.0,9.0,97,0.00,,,0.29,Rainwise IP-100,2013-06-07 15:54:00,
2013-06-07 11:59:00,50.6,50.0,29.38,ESE,112,1.0,5.0,96,0.00,,,0.29,Rainwise IP-100,2013-06-07 15:59:00,
2013-06-07 12:04:00,50.8,50.5,29.38,ENE,67,2.0,5.0,97,0.00,,,0.29,Rainwise IP-100,2013-06-07 16:04:00,
2013-06-07 12:10:00,51.1,50.5,29.38,SSE,157,4.0,4.0,97,0.06,,,0.30,Rainwise IP-100,2013-06-07 16:10:00,
2013-06-07 12:15:00,51.1,50.0,29.38,ENE,67,5.0,5.0,96,0.06,,,0.30,Rainwise IP-100,2013-06-07 16:15:00,
2013-06-07 12:20:00,51.0,50.0,29.38,ENE,67,3.0,7.0,96,0.00,,,0.31,Rainwise IP-100,2013-06-07 16:20:00,
2013-06-07 12:25:00,50.8,50.0,29.38,East,90,2.0,8.0,95,0.06,,,0.31,Rainwise IP-100,2013-06-07 16:25:00,
2013-06-07 12:30:00,50.9,50.0,29.38,East,90,2.0,8.0,95,0.06,,,0.31,Rainwise IP-100,2013-06-07 16:30:00,
2013-06-07 12:35:00,50.8,50.0,29.38,NE,45,0.0,6.0,95,0.06,,,0.32,Rainwise IP-100,2013-06-07 16:35:00,
2013-06-07 12:40:00,51.1,50.0,29.38,NE,45,2.0,6.0,95,0.06,,,0.32,Rainwise IP-100,2013-06-07 16:40:00,
2013-06-07 12:45:00,51.1,50.0,29.38,NNE,22,2.0,7.0,96,0.00,,,0.32,Rainwise IP-100,2013-06-07 16:45:00,
2013-06-07 12:51:00,51.2,50.0,29.38,NE,45,2.0,6.0,96,0.00,,,0.32,Rainwise IP-100,2013-06-07 16:51:00,
2013-06-07 12:56:00,51.3,50.0,29.37,NNW,337,0.0,5.0,96,0.06,,,0.33,Rainwise IP-100,2013-06-07 16:56:00,
2013-06-07 13:01:00,51.4,50.5,29.37,NNE,22,3.0,6.0,97,0.06,,,0.33,Rainwise IP-100,2013-06-07 17:01:00,
2013-06-07 13:06:00,51.4,50.0,29.37,NE,45,1.0,6.0,96,0.06,,,0.34,Rainwise IP-100,2013-06-07 17:06:00,
2013-06-07 13:11:00,51.5,51.0,29.37,NNW,337,2.0,5.0,97,0.12,,,0.35,Rainwise IP-100,2013-06-07 17:11:00,
2013-06-07 13:16:00,51.5,50.5,29.37,NNE,22,0.0,6.0,96,0.06,,,0.35,Rainwise IP-100,2013-06-07 17:16:00,
2013-06-07 13:21:00,51.6,51.0,29.37,NE,45,4.0,6.0,97,0.00,,,0.35,Rainwise IP-100,2013-06-07 17:21:00,
2013-06-07 13:27:00,51.6,50.5,29.37,NNE,22,6.0,6.0,96,0.06,,,0.36,Rainwise IP-100,2013-06-07 17:27:00,
2013-06-07 13:32:00,51.4,50.0,29.37,NNE,22,3.0,7.0,96,0.12,,,0.37,Rainwise IP-100,2013-06-07 17:32:00,
2013-06-07 13:37:00,51.2,50.5,29.37,NNE,22,6.0,6.0,97,0.06,,,0.37,Rainwise IP-100,2013-06-07 17:37:00,
2013-06-07 13:42:00,51.1,50.5,29.36,NE,45,3.0,7.0,97,0.06,,,0.38,Rainwise IP-100,2013-06-07 17:42:00,
2013-06-07 13:47:00,51.1,50.5,29.36,NNE,22,3.0,5.0,97,0.06,,,0.38,Rainwise IP-100,2013-06-07 17:47:00,
2013-06-07 13:52:00,51.2,50.5,29.36,NNE,22,1.0,6.0,97,0.06,,,0.39,Rainwise IP-100,2013-06-07 17:52:00,
2013-06-07 13:57:00,51.2,50.5,29.36,NNW,337,5.0,6.0,97,0.12,,,0.40,Rainwise IP-100,2013-06-07 17:57:00,
2013-06-07 14:02:00,51.3,50.5,29.36,NNE,22,1.0,5.0,97,0.12,,,0.41,Rainwise IP-100,2013-06-07 18:02:00,
2013-06-07 14:08:00,51.3,50.5,29.36,NNE,22,4.0,5.0,97,0.12,,,0.42,Rainwise IP-100,2013-06-07 18:08:00,
2013-06-07 14:13:00,51.4,50.5,29.36,NE,45,0.0,4.0,97,0.12,,,0.43,Rainwise IP-100,2013-06-07 18:13:00,
2013-06-07 14:18:00,51.8,50.5,29.36,NNW,337,3.0,3.0,96,0.06,,,0.43,Rainwise IP-100,2013-06-07 18:18:00,
2013-06-07 14:23:00,51.9,50.5,29.36,NNW,337,3.0,5.0,96,0.06,,,0.44,Rainwise IP-100,2013-06-07 18:23:00,
2013-06-07 14:28:00,51.9,50.5,29.36,NE,45,5.0,6.0,96,0.06,,,0.44,Rainwise IP-100,2013-06-07 18:28:00,
2013-06-07 14:33:00,51.9,50.5,29.35,NE,45,3.0,6.0,96,0.00,,,0.44,Rainwise IP-100,2013-06-07 18:33:00,
2013-06-07 14:38:00,51.8,51.0,29.35,NE,45,3.0,5.0,97,0.06,,,0.45,Rainwise IP-100,2013-06-07 18:38:00,
2013-06-07 14:44:00,51.9,51.0,29.35,NNE,22,3.0,5.0,97,0.06,,,0.45,Rainwise IP-100,2013-06-07 18:44:00,
2013-06-07 14:49:00,51.9,51.0,29.35,NE,45,1.0,5.0,97,0.06,,,0.46,Rainwise IP-100,2013-06-07 18:49:00,
2013-06-07 14:54:00,51.9,51.0,29.35,NE,45,5.0,6.0,97,0.06,,,0.46,Rainwise IP-100,2013-06-07 18:54:00,
2013-06-07 14:59:00,52.0,51.0,29.35,NNW,337,2.0,6.0,97,0.06,,,0.47,Rainwise IP-100,2013-06-07 18:59:00,
2013-06-07 15:04:00,52.1,51.0,29.35,NW,315,2.0,5.0,97,0.12,,,0.48,Rainwise IP-100,2013-06-07 19:04:00,
2013-06-07 15:09:00,52.1,51.0,29.35,NNE,22,4.0,6.0,97,0.06,,,0.48,Rainwise IP-100,2013-06-07 19:09:00,
2013-06-07 15:14:00,52.0,51.0,29.35,NE,45,3.0,6.0,97,0.06,,,0.49,Rainwise IP-100,2013-06-07 19:14:00,
2013-06-07 15:19:00,51.9,51.0,29.34,NNE,22,4.0,6.0,97,0.12,,,0.50,Rainwise IP-100,2013-06-07 19:19:00,
2013-06-07 15:25:00,52.1,51.0,29.34,NNE,22,2.0,5.0,97,0.12,,,0.51,Rainwise IP-100,2013-06-07 19:25:00,
2013-06-07 15:30:00,52.2,51.0,29.34,NNE,22,1.0,5.0,97,0.12,,,0.52,Rainwise IP-100,2013-06-07 19:30:00,
2013-06-07 15:35:00,52.2,51.0,29.34,North,360,1.0,6.0,97,0.12,,,0.53,Rainwise IP-100,2013-06-07 19:35:00,
2013-06-07 15:40:00,52.3,51.0,29.33,NNE,22,3.0,6.0,97,0.06,,,0.53,Rainwise IP-100,2013-06-07 19:40:00,
2013-06-07 15:45:00,52.3,51.0,29.33,NNE,22,3.0,5.0,97,0.06,,,0.54,Rainwise IP-100,2013-06-07 19:45:00,
2013-06-07 15:50:00,52.3,51.0,29.33,NE,45,4.0,6.0,97,0.12,,,0.55,Rainwise IP-100,2013-06-07 19:50:00,
2013-06-07 15:55:00,52.5,52.0,29.33,NNE,22,1.0,5.0,97,0.06,,,0.55,Rainwise IP-100,2013-06-07 19:55:00,
2013-06-07 16:01:00,52.7,52.0,29.33,North,360,3.0,3.0,97,0.06,,,0.57,Rainwise IP-100,2013-06-07 20:01:00,
2013-06-07 16:06:00,52.6,52.0,29.33,NNE,22,5.0,6.0,97,0.18,,,0.58,Rainwise IP-100,2013-06-07 20:06:00,
2013-06-07 16:11:00,52.4,51.0,29.32,NNW,337,0.0,6.0,97,0.18,,,0.60,Rainwise IP-100,2013-06-07 20:11:00,
2013-06-07 16:16:00,52.4,51.0,29.32,NE,45,3.0,5.0,97,0.18,,,0.61,Rainwise IP-100,2013-06-07 20:16:00,
2013-06-07 16:21:00,52.5,52.0,29.32,NNE,22,2.0,6.0,97,0.12,,,0.62,Rainwise IP-100,2013-06-07 20:21:00,
2013-06-07 16:26:00,52.5,52.0,29.32,NNE,22,0.0,3.0,97,0.06,,,0.62,Rainwise IP-100,2013-06-07 20:26:00,
2013-06-07 16:31:00,52.6,52.0,29.32,NNW,337,3.0,5.0,97,0.06,,,0.63,Rainwise IP-100,2013-06-07 20:31:00,
2013-06-07 16:36:00,52.6,52.0,29.31,North,360,0.0,6.0,97,0.06,,,0.63,Rainwise IP-100,2013-06-07 20:36:00,
2013-06-07 16:42:00,52.7,52.0,29.31,North,360,2.0,2.0,97,0.06,,,0.64,Rainwise IP-100,2013-06-07 20:42:00,
2013-06-07 16:47:00,52.7,52.0,29.31,NE,45,3.0,3.0,97,0.06,,,0.64,Rainwise IP-100,2013-06-07 20:47:00,
2013-06-07 16:56:00,52.7,52.0,29.31,NNE,22,4.0,4.0,97,0.06,,,0.65,Rainwise IP-100,2013-06-07 20:56:00,
2013-06-07 17:01:00,52.7,52.0,29.31,NNE,22,6.0,6.0,97,0.06,,,0.65,Rainwise IP-100,2013-06-07 21:01:00,
2013-06-07 17:06:00,52.7,52.0,29.30,North,360,1.0,6.0,97,0.06,,,0.66,Rainwise IP-100,2013-06-07 21:06:00,
2013-06-07 17:11:00,52.6,52.0,29.30,NNE,22,0.0,6.0,97,0.06,,,0.66,Rainwise IP-100,2013-06-07 21:11:00,
2013-06-07 17:17:00,52.6,52.0,29.30,NNE,22,5.0,5.0,97,0.00,,,0.66,Rainwise IP-100,2013-06-07 21:17:00,
2013-06-07 17:22:00,52.7,52.0,29.30,NNE,22,2.0,5.0,97,0.06,,,0.67,Rainwise IP-100,2013-06-07 21:22:00,
2013-06-07 17:27:00,52.6,52.0,29.30,NNW,337,1.0,4.0,97,0.06,,,0.67,Rainwise IP-100,2013-06-07 21:27:00,
2013-06-07 17:32:00,52.7,52.0,29.30,North,360,4.0,4.0,97,0.06,,,0.68,Rainwise IP-100,2013-06-07 21:32:00,
2013-06-07 17:37:00,52.7,52.0,29.30,NNW,337,1.0,5.0,97,0.06,,,0.69,Rainwise IP-100,2013-06-07 21:37:00,
2013-06-07 17:42:00,52.7,52.0,29.29,NNW,337,0.0,3.0,97,0.06,,,0.69,Rainwise IP-100,2013-06-07 21:42:00,
2013-06-07 17:47:00,52.6,52.0,29.29,NNW,337,2.0,4.0,97,0.12,,,0.70,Rainwise IP-100,2013-06-07 21:47:00,
2013-06-07 17:52:00,52.8,52.0,29.29,NNW,337,2.0,4.0,97,0.12,,,0.71,Rainwise IP-100,2013-06-07 21:52:00,
2013-06-07 17:57:00,52.8,52.0,29.29,NNW,337,1.0,4.0,97,0.12,,,0.72,Rainwise IP-100,2013-06-07 21:57:00,
2013-06-07 18:03:00,52.8,52.0,29.29,NNW,337,0.0,3.0,97,0.06,,,0.73,Rainwise IP-100,2013-06-07 22:03:00,
2013-06-07 18:08:00,52.8,52.0,29.29,NNW,337,2.0,3.0,97,0.12,,,0.74,Rainwise IP-100,2013-06-07 22:08:00,
2013-06-07 18:13:00,52.5,52.0,29.29,North,360,5.0,5.0,97,0.12,,,0.75,Rainwise IP-100,2013-06-07 22:13:00,
2013-06-07 18:18:00,52.4,51.0,29.29,North,360,0.0,5.0,97,0.18,,,0.77,Rainwise IP-100,2013-06-07 22:18:00,
2013-06-07 18:23:00,52.4,51.0,29.29,North,360,2.0,3.0,97,0.18,,,0.79,Rainwise IP-100,2013-06-07 22:23:00,
2013-06-07 18:28:00,52.3,51.0,29.29,NNE,22,0.0,5.0,97,0.18,,,0.80,Rainwise IP-100,2013-06-07 22:28:00,
2013-06-07 18:33:00,52.3,51.0,29.29,NW,315,3.0,4.0,98,0.24,,,0.82,Rainwise IP-100,2013-06-07 22:33:00,
2013-06-07 18:39:00,52.3,51.0,29.29,NNW,337,3.0,5.0,98,0.18,,,0.83,Rainwise IP-100,2013-06-07 22:39:00,
2013-06-07 18:44:00,52.2,51.0,29.29,NNW,337,5.0,5.0,98,0.12,,,0.84,Rainwise IP-100,2013-06-07 22:44:00,
2013-06-07 18:49:00,52.2,51.0,29.28,NNW,337,0.0,6.0,98,0.12,,,0.85,Rainwise IP-100,2013-06-07 22:49:00,
2013-06-07 18:54:00,52.1,51.0,29.28,NNE,22,3.0,4.0,98,0.12,,,0.86,Rainwise IP-100,2013-06-07 22:54:00,
2013-06-07 18:59:00,52.1,51.0,29.28,NNE,22,1.0,6.0,98,0.06,,,0.87,Rainwise IP-100,2013-06-07 22:59:00,
2013-06-07 19:04:00,52.0,51.0,29.28,NNE,22,2.0,6.0,98,0.06,,,0.87,Rainwise IP-100,2013-06-07 23:04:00,
2013-06-07 19:09:00,51.9,51.0,29.28,NNE,22,5.0,6.0,98,0.12,,,0.88,Rainwise IP-100,2013-06-07 23:09:00,
2013-06-07 19:14:00,51.9,51.0,29.28,NE,45,3.0,7.0,98,0.12,,,0.89,Rainwise IP-100,2013-06-07 23:14:00,
2013-06-07 19:20:00,51.9,52.0,29.28,NNW,337,2.0,6.0,99,0.12,,,0.90,Rainwise IP-100,2013-06-07 23:20:00,
2013-06-07 19:25:00,51.9,51.0,29.27,NNE,22,0.0,6.0,98,0.12,,,0.91,Rainwise IP-100,2013-06-07 23:25:00,
2013-06-07 19:30:00,52.0,51.0,29.27,NE,45,5.0,6.0,98,0.12,,,0.92,Rainwise IP-100,2013-06-07 23:30:00,
2013-06-07 19:35:00,51.9,51.0,29.27,NNE,22,2.0,6.0,98,0.12,,,0.93,Rainwise IP-100,2013-06-07 23:35:00,
2013-06-07 19:40:00,51.9,51.0,29.27,NNE,22,5.0,7.0,98,0.12,,,0.95,Rainwise IP-100,2013-06-07 23:40:00,
2013-06-07 19:45:00,51.9,51.0,29.27,North,360,5.0,6.0,98,0.12,,,0.95,Rainwise IP-100,2013-06-07 23:45:00,
2013-06-07 19:50:00,51.7,51.0,29.27,NNE,22,0.0,7.0,98,0.12,,,0.96,Rainwise IP-100,2013-06-07 23:50:00,
2013-06-07 19:56:00,51.7,52.0,29.27,NNW,337,3.0,6.0,99,0.12,,,0.97,Rainwise IP-100,2013-06-07 23:56:00,
2013-06-07 20:01:00,51.6,51.0,29.26,NNE,22,0.0,4.0,98,0.12,,,0.98,Rainwise IP-100,2013-06-08 00:01:00,
2013-06-07 20:06:00,51.6,51.0,29.26,North,360,1.0,4.0,98,0.12,,,0.99,Rainwise IP-100,2013-06-08 00:06:00,
2013-06-07 20:11:00,51.5,52.0,29.25,NW,315,3.0,6.0,99,0.18,,,1.01,Rainwise IP-100,2013-06-08 00:11:00,
2013-06-07 20:16:00,51.4,51.0,29.25,North,360,1.0,8.0,99,0.18,,,1.02,Rainwise IP-100,2013-06-08 00:16:00,
2013-06-07 20:21:00,51.4,51.0,29.25,NNE,22,0.0,7.0,99,0.12,,,1.03,Rainwise IP-100,2013-06-08 00:21:00,
2013-06-07 20:26:00,51.3,51.0,29.24,NNW,337,4.0,7.0,99,0.12,,,1.04,Rainwise IP-100,2013-06-08 00:26:00,
2013-06-07 20:31:00,51.3,51.0,29.24,North,360,4.0,6.0,99,0.06,,,1.04,Rainwise IP-100,2013-06-08 00:31:00,
2013-06-07 20:37:00,51.2,51.0,29.24,North,360,2.0,7.0,99,0.06,,,1.05,Rainwise IP-100,2013-06-08 00:37:00,
2013-06-07 20:42:00,51.1,51.0,29.24,NW,315,4.0,6.0,99,0.06,,,1.05,Rainwise IP-100,2013-06-08 00:42:00,
2013-06-07 20:47:00,51.1,51.0,29.24,NNE,22,2.0,7.0,99,0.06,,,1.06,Rainwise IP-100,2013-06-08 00:47:00,
2013-06-07 20:52:00,51.1,51.0,29.24,NNE,22,3.0,6.0,99,0.06,,,1.06,Rainwise IP-100,2013-06-08 00:52:00,
2013-06-07 20:57:00,51.1,51.0,29.24,NNW,337,2.0,6.0,99,0.00,,,1.06,Rainwise IP-100,2013-06-08 00:57:00,
2013-06-07 21:02:00,51.3,50.5,29.24,NNW,337,5.0,6.0,98,0.00,,,1.06,Rainwise IP-100,2013-06-08 01:02:00,
2013-06-07 21:07:00,51.3,51.0,29.24,NNW,337,4.0,7.0,99,0.00,,,1.06,Rainwise IP-100,2013-06-08 01:07:00,
2013-06-07 21:13:00,51.3,51.0,29.24,North,360,1.0,5.0,99,0.00,,,1.06,Rainwise IP-100,2013-06-08 01:13:00,
2013-06-07 21:18:00,51.3,50.5,29.24,NW,315,2.0,6.0,98,0.00,,,1.06,Rainwise IP-100,2013-06-08 01:18:00,
2013-06-07 21:23:00,51.1,51.0,29.25,NNW,337,4.0,6.0,99,0.00,,,1.06,Rainwise IP-100,2013-06-08 01:23:00,
2013-06-07 21:28:00,51.0,51.0,29.25,WNW,292,3.0,6.0,99,0.00,,,1.06,Rainwise IP-100,2013-06-08 01:28:00,
2013-06-07 21:33:00,51.0,51.0,29.24,North,360,1.0,6.0,99,0.00,,,1.06,Rainwise IP-100,2013-06-08 01:33:00,
2013-06-07 21:38:00,51.0,51.0,29.24,North,360,3.0,5.0,99,0.00,,,1.06,Rainwise IP-100,2013-06-08 01:38:00,
2013-06-07 21:43:00,50.9,51.0,29.24,NNE,22,0.0,6.0,99,0.00,,,1.06,Rainwise IP-100,2013-06-08 01:43:00,
2013-06-07 21:48:00,50.9,51.0,29.25,NW,315,4.0,5.0,99,0.06,,,1.07,Rainwise IP-100,2013-06-08 01:48:00,
2013-06-07 21:54:00,50.9,51.0,29.25,NNE,22,3.0,6.0,99,0.06,,,1.07,Rainwise IP-100,2013-06-08 01:54:00,
2013-06-07 21:59:00,50.9,51.0,29.25,North,360,3.0,6.0,99,0.00,,,1.07,Rainwise IP-100,2013-06-08 01:59:00,
2013-06-07 22:04:00,50.9,51.0,29.25,NW,315,3.0,4.0,99,0.00,,,1.07,Rainwise IP-100,2013-06-08 02:04:00,
2013-06-07 22:09:00,50.9,51.0,29.25,North,360,1.0,5.0,99,0.00,,,1.07,Rainwise IP-100,2013-06-08 02:09:00,
2013-06-07 22:14:00,50.9,51.0,29.24,NW,315,0.0,4.0,99,0.00,,,1.07,Rainwise IP-100,2013-06-08 02:14:00,
2013-06-07 22:19:00,50.9,51.0,29.24,NW,315,4.0,5.0,99,0.00,,,1.07,Rainwise IP-100,2013-06-08 02:19:00,
2013-06-07 22:24:00,50.9,51.0,29.24,NNW,337,2.0,6.0,99,0.00,,,1.07,Rainwise IP-100,2013-06-08 02:24:00,
2013-06-07 22:30:00,50.9,51.0,29.24,North,360,1.0,6.0,99,0.00,,,1.07,Rainwise IP-100,2013-06-08 02:30:00,
2013-06-07 22:35:00,50.8,51.0,29.23,NNE,22,4.0,8.0,99,0.00,,,1.07,Rainwise IP-100,2013-06-08 02:35:00,
2013-06-07 22:40:00,51.1,50.5,29.23,NNE,22,2.0,8.0,98,0.00,,,1.07,Rainwise IP-100,2013-06-08 02:40:00,
2013-06-07 22:45:00,51.1,50.5,29.23,NNE,22,5.0,7.0,98,0.00,,,1.07,Rainwise IP-100,2013-06-08 02:45:00,
2013-06-07 22:50:00,51.1,50.5,29.22,NE,45,6.0,9.0,98,0.00,,,1.07,Rainwise IP-100,2013-06-08 02:50:00,
2013-06-07 22:55:00,50.8,50.5,29.22,NE,45,3.0,8.0,98,0.00,,,1.07,Rainwise IP-100,2013-06-08 02:55:00,
2013-06-07 23:00:00,50.7,50.0,29.21,NE,45,3.0,9.0,98,0.06,,,1.08,Rainwise IP-100,2013-06-08 03:00:00,
2013-06-07 23:05:00,50.7,50.0,29.21,East,90,3.0,10.0,98,0.06,,,1.08,Rainwise IP-100,2013-06-08 03:05:00,
2013-06-07 23:11:00,50.7,50.0,29.21,NNW,337,0.0,7.0,98,0.00,,,1.08,Rainwise IP-100,2013-06-08 03:11:00,
2013-06-07 23:16:00,50.6,50.0,29.21,NNW,337,3.0,5.0,98,0.00,,,1.08,Rainwise IP-100,2013-06-08 03:16:00,
2013-06-07 23:21:00,50.6,50.0,29.21,WNW,292,4.0,6.0,98,0.06,,,1.09,Rainwise IP-100,2013-06-08 03:21:00,
2013-06-07 23:26:00,50.7,50.0,29.21,NNW,337,3.0,5.0,98,0.06,,,1.09,Rainwise IP-100,2013-06-08 03:26:00,
2013-06-07 23:31:00,50.6,50.0,29.21,North,360,4.0,6.0,98,0.06,,,1.10,Rainwise IP-100,2013-06-08 03:31:00,
2013-06-07 23:36:00,50.5,50.0,29.21,NW,315,3.0,6.0,98,0.12,,,1.11,Rainwise IP-100,2013-06-08 03:36:00,
2013-06-07 23:41:00,50.5,50.0,29.21,NW,315,6.0,6.0,98,0.12,,,1.12,Rainwise IP-100,2013-06-08 03:41:00,
2013-06-07 23:47:00,50.4,50.0,29.20,North,360,5.0,6.0,98,0.12,,,1.13,Rainwise IP-100,2013-06-08 03:47:00,
2013-06-07 23:52:00,50.3,50.5,29.19,NNE,22,3.0,9.0,99,0.12,,,1.14,Rainwise IP-100,2013-06-08 03:52:00,
2013-06-07 23:57:00,50.3,50.5,29.19,North,360,3.0,6.0,99,0.06,,,1.14,Rainwise IP-100,2013-06-08 03:57:00,